sat.trackr.live / text

‹ back to catalog

KINEIS-5E

NORAD 62083 · 2024-219C

PAYLOAD ACTIVE UNKNOWN

§ Identity

Operator
Country
FR
Launch date
2024-11-25
Launch site
RLLB
Launch vehicle
Mass (kg)
RCS (m²)

External: N2YO · Heavens-Above · Gunter

§ Orbital elements

Epoch: 2026-05-25T04:56:07.708992Z

Period
97.79 min
Inclination
97.8976°
Eccentricity
0.0005929
Mean motion
14.72504992 rev/d
Perigee alt
648.9 km
Apogee alt
657.3 km
Semi-major
7,031.2 km
B*
9.2756e-5
RAAN
304.8099°
Arg perigee
353.4067°
Mean anomaly
6.7062°
Rev number
8,038

§ Raw data

KINEIS-5E1 62083U 24219C   26145.20564478  .00000541  00000+0  92756-4 0  99932 62083  97.8976 304.8099 0005929 353.4067   6.7062 14.72504992 80386

JSON: /api/v1/satellites/62083 · /tle

For live sub-satellite position, see the globe view (requires WebGL).

§ Visibility from observer

Set your observer location to see the next 7 days of passes ≥ 10°. The values pass through the URL so the page stays shareable.

No JS? Fill the form by hand. The geolocation button needs JavaScript.

§ Radio — SatNOGS DB

ModeDescriptionDownlinkUplink
BPSK PMT-A3 Mode U 400.639 MHz
BPSK S-band telemetry 2.265 GHz

2 transmitters · refreshed weekly from db.satnogs.org